Location: ???????
(38.3360°N, 23.6977°E)
Time: 05:46:31
(UTC+00:00)

CORIOLIS - Pass Details

Date: 17 November 2025
Orbit: 815 x 836 km, 98.7° (Epoch: 09 December)

Event Time Altitude Azimuth Distance (km) Brightness Sun altitude
Rises 15:47:31 0° 164° (SSE) 3,349 7.4 -7.5°
Reaches altitude 10° 15:49:51 10° 164° (SSE) 2,417 6.6 -7.9°
Maximum altitude 15:55:13 87° 77° (ENE) 828 4.2 -8.9°
Drops below altitude 10° 16:00:35 10° 347° (NNW) 2,420 6.6 -9.9°
Sets 16:02:56 0° 348° (NNW) 3,354 7.3 -10.4°
